TimeMST,TemperatureF,Dew PointF,Humidity,Sea Level PressureIn,VisibilityMPH,Wind Direction,Wind SpeedMPH,Gust SpeedMPH,PrecipitationIn,Events,Conditions,WindDirDegrees,DateUTC
12:53 AM,37.0,23.0,57,30.15,10.0,SW,11.5,-,N/A,,Clear,230,2012-11-14 07:53:00
1:53 AM,37.0,23.0,57,30.13,10.0,WSW,15.0,-,N/A,,Clear,240,2012-11-14 08:53:00
2:53 AM,39.0,23.0,53,30.13,10.0,WSW,16.1,-,N/A,,Scattered Clouds,240,2012-11-14 09:53:00
3:53 AM,39.0,23.0,53,30.12,10.0,WSW,9.2,-,N/A,,Partly Cloudy,250,2012-11-14 10:53:00
4:53 AM,37.0,24.1,59,30.13,10.0,SSW,9.2,-,N/A,,Overcast,210,2012-11-14 11:53:00
5:53 AM,36.0,26.1,67,30.12,10.0,SSW,9.2,-,0.00,,Overcast,200,2012-11-14 12:53:00
6:53 AM,36.0,25.0,64,30.11,10.0,WSW,16.1,-,N/A,,Mostly Cloudy,240,2012-11-14 13:53:00
7:53 AM,35.1,25.0,67,30.12,10.0,SW,13.8,-,N/A,,Mostly Cloudy,230,2012-11-14 14:53:00
8:53 AM,37.0,25.0,62,30.12,10.0,WSW,16.1,-,N/A,,Scattered Clouds,240,2012-11-14 15:53:00
9:53 AM,41.0,26.1,55,30.13,10.0,SW,11.5,-,N/A,,Mostly Cloudy,230,2012-11-14 16:53:00
10:53 AM,43.0,27.0,53,30.12,10.0,SW,16.1,-,N/A,,Scattered Clouds,220,2012-11-14 17:53:00
11:53 AM,45.0,28.0,52,30.11,10.0,SW,10.4,-,N/A,,Mostly Cloudy,230,2012-11-14 18:53:00
12:53 PM,46.0,28.0,50,30.09,10.0,SW,13.8,-,N/A,,Mostly Cloudy,230,2012-11-14 19:53:00
1:53 PM,46.9,28.9,50,30.10,10.0,WSW,12.7,-,N/A,,Mostly Cloudy,240,2012-11-14 20:53:00
2:53 PM,48.0,30.0,50,30.10,10.0,WSW,10.4,-,N/A,,Mostly Cloudy,250,2012-11-14 21:53:00
3:53 PM,46.9,30.0,52,30.12,10.0,West,10.4,-,N/A,,Mostly Cloudy,270,2012-11-14 22:53:00
4:53 PM,46.9,30.0,52,30.14,10.0,WNW,10.4,-,N/A,,Mostly Cloudy,300,2012-11-14 23:53:00
5:53 PM,43.0,28.9,58,30.18,10.0,WNW,13.8,-,N/A,,Scattered Clouds,300,2012-11-15 00:53:00
6:53 PM,42.1,26.1,53,30.21,10.0,WNW,15.0,-,N/A,,Partly Cloudy,300,2012-11-15 01:53:00
7:53 PM,41.0,24.1,51,30.23,10.0,WNW,13.8,-,N/A,,Partly Cloudy,290,2012-11-15 02:53:00
8:53 PM,37.0,24.1,59,30.26,10.0,WSW,9.2,-,N/A,,Clear,250,2012-11-15 03:53:00
9:53 PM,37.0,24.1,59,30.27,10.0,West,8.1,-,N/A,,Partly Cloudy,270,2012-11-15 04:53:00
10:53 PM,37.9,24.1,57,30.29,10.0,South,4.6,-,N/A,,Mostly Cloudy,190,2012-11-15 05:53:00
11:53 PM,36.0,25.0,64,30.30,10.0,WSW,6.9,-,N/A,,Mostly Cloudy,240,2012-11-15 06:53:00